Vertical_Velocity
-1 -2 -2 -0 0 2 -1 1 -0 1 -2 -0 -1 -2 -2 0 -1 -1 -1 3 10 9 -1 -1 -0 4 1 2 2 -0 -3 -2 -1 -1 1 -1 -1 -0 3 0 -1 -2 -0
-2 -1 -2 -0 -1 -1 -0 0 -1 -2 -2 0 -1 -1 -2 -1 -1 1 4 6 2 -3 -1 -2 -1 0 -1 3 -2 -2 -2 -2 -4 -1 0 -1 -4 2 0 1 -1 5 -1
1 -3 -0 -1 1 1 1 1 -1 0 0 1 -0 -1 -2 -1 2 1 2 0 -0 -2 -1 -0 -0 -2 -2 -2 -1 -2 -3 -1 5 -3 -1 -1 -3 -3 -1 -3 -0 -1 -1
-1 -1 -0 0 -0 1 -0 1 1 1 -0 -0 0 -0 -0 -1 2 1 2 -1 -3 -1 -4 -0 -2 2 -1 -3 -2 -3 1 4 -3 -2 -2 -2 -2 2 -1 -3 -2 -2 -0
-1 -1 -1 -0 0 1 -0 -0 -0 -0 0 -0 1 -1 1 2 3 -0 0 -1 0 -2 -1 1 -1 -2 1 -2 -3 -1 -3 -2 -3 3 0 0 -1 4 2 -1 -3 -2 -1
-0 1 -1 -0 -1 0 0 -1 -0 -0 -1 0 1 1 0 -0 -0 1 -1 0 -0 -1 -2 -0 -1 -0 -0 -2 -2 0 8 -3 -4 -1 -2 6 9 5 -3 6 7 -3 -1
3 3 -0 -0 1 0 -1 -2 0 -1 -1 -0 2 2 -2 -1 -0 2 -2 -0 0 -0 0 0 -1 -1 1 -1 -1 3 0 -1 -5 -1 -2 0 1 -3 -1 -1 -1 -0 2
-6 1 3 1 -1 1 -0 -3 -0 -1 -1 -0 1 2 -1 0 -0 2 -1 -1 2 -0 -0 5 1 0 -0 -1 -2 2 -1 -1 0 -2 -1 -1 1 -3 -1 -2 -2 1 8
-1 -2 0 1 2 0 2 -3 -0 1 -4 1 -0 1 -1 -0 0 2 -1 -1 -1 1 -0 0 0 2 -1 -3 -2 1 -1 -2 -4 -1 -2 -0 -2 -4 0 -0 -1 -1 4
1 0 0 1 1 -1 1 2 -1 -0 -1 -0 -1 -0 -1 -0 -1 2 1 2 -0 0 1 -1 -0 -1 -4 -1 -3 6 -4 -2 -5 -2 -1 -0 -1 -2 0 -2 1 -2 -1
1 0 1 -1 2 -0 -2 4 0 1 -0 1 -0 -1 -0 -1 -1 -0 1 2 -1 -0 -1 -1 -1 -4 -2 -1 -3 4 5 -1 -4 -3 -2 -2 -2 -0 1 0 0 -0 0
0 1 1 1 1 1 -0 -2 2 1 1 -0 -1 0 -3 -1 2 -0 2 -2 -0 -2 0 0 -1 1 1 -3 2 9 -3 -4 -4 -4 -3 -4 -1 -1 0 -3 -0 -1 -0
5 4 2 -0 1 2 0 -1 -3 1 1 -1 -1 -3 -4 -2 0 -1 -1 -1 -2 -4 -2 1 1 0 0 -0 1 7 6 -2 -6 -3 1 3 -5 -1 -2 1 1 -3 -2
-2 -0 1 -0 -2 -1 -0 -2 0 -4 -1 -3 -0 15 -6 -4 -5 -2 -2 -2 -2 -2 -1 -1 -1 -2 1 1 3 9 -4 -2 -4 -3 -4 5 2 -0 -3 -2 -2 -0 1
2 0 -2 -1 -2 -1 -0 1 -0 -0 -3 -6 6 4 -2 -3 -6 -6 -9 -3 2 -2 -0 1 1 1 -3 2 -0 -1 -1 -1 -1 -3 -2 -2 -2 -1 -2 1 1 -2 -2
4 -0 1 -2 -3 1 -1 0 -0 -0 -2 -0 6 0 -3 -1 -3 8 -2 5 -3 5 -0 0 -0 -3 -3 1 -4 2 -4 -2 -2 0 1 -1 -2 -1 -3 -0 -3 -2 -1
1 1 2 4 -1 1 2 1 -2 1 -1 -1 1 -2 -3 6 -2 3 -0 -1 0 -3 -4 0 -2 -0 -3 -1 -3 -1 1 0 1 -2 -1 -3 -2 -1 -1 -1 1 -2 -1
4 -1 3 -2 -1 -3 1 -1 3 -1 0 -2 -0 -2 -1 0 -1 -1 -4 5 -2 0 1 -1 3 -1 -3 -2 -2 -1 -3 -2 -1 1 -3 -2 -3 0 -0 -1 -1 -0 -1
2 1 8 1 -1 -2 3 1 -3 1 0 0 0 -0 0 -3 -2 3 -3 4 3 3 -2 -0 -1 -3 -2 -1 1 -1 -2 -1 1 -1 -1 0 -2 -1 1 -1 -1 -1 -1
-2 4 7 6 4 4 -1 4 4 0 3 0 0 0 -0 -2 -1 -3 -2 0 2 -1 -2 1 -2 -0 -2 -0 -2 4 4 1 1 -1 -1 -0 -2 -3 -0 -2 -1 -1 -1
13 12 -2 4 0 -4 -6 -5 -3 -6 -2 1 1 1 -1 -2 -2 -1 -4 -1 -1 -1 -1 -0 -1 -1 -1 1 -5 0 1 0 -0 0 2 0 0 -2 -0 -3 -5 -1 -1
4 9 7 5 2 1 1 -1 4 3 3 2 2 1 -0 -1 -1 -1 -2 -3 -2 -1 -0 0 -1 -2 1 -0 -5 2 -0 1 0 1 1 -2 -0 -1 1 -1 1 -2 -3
19 19 2 -0 -3 2 0 6 11 6 8 3 -4 0 3 4 1 -1 -2 -2 -1 -3 -2 -2 -1 -1 -3 1 -2 1 -1 2 -1 0 1 -1 1 -1 -1 -0 -0 -0 -1
5 -0 13 -4 -1 -1 1 4 -4 -9 -6 -2 2 2 -2 0 -1 0 1 -1 -3 -1 -2 -1 -2 -1 -1 -3 -0 1 0 -2 1 -0 -2 0 0 -2 0 -0 -2 -1 0
8 12 5 6 3 5 1 -1 -2 1 -0 2 3 1 5 -1 1 0 0 1 -1 -2 -1 -1 -4 -2 -1 0 -0 -3 0 -1 2 -2 -1 1 -0 0 1 -1 3 -1 -1
3 21 10 8 2 11 -1 -1 1 -3 -4 -3 -3 -0 -1 -1 -0 2 1 1 -1 -2 -3 0 0 -1 -2 -1 0 -2 -0 -1 -2 -3 0 -1 2 -3 -1 -3 -1 1 1
Height
1502 1507 1512 1517 1521 1525 1529 1531 1534 1537 1539 1541 1543 1545 1548 1549 1550 1551 1552 1554 1555 1556 1558 1559 1561 1561 1561 1562 1563 1564 1564 1565 1564 1564 1564 1564 1564 1565 1564 1564 1564 1563 1563
1500 1506 1512 1517 1522 1526 1530 1533 1536 1538 1539 1542 1544 1546 1549 1551 1552 1553 1555 1556 1557 1559 1560 1561 1563 1564 1565 1567 1567 1567 1568 1567 1567 1566 1566 1567 1567 1568 1567 1567 1567 1567 1566
1501 1506 1512 1517 1522 1526 1530 1534 1536 1539 1541 1543 1545 1547 1550 1552 1554 1556 1557 1558 1559 1561 1563 1565 1566 1567 1568 1570 1570 1571 1571 1571 1572 1570 1570 1570 1569 1571 1570 1570 1570 1570 1569
1501 1506 1512 1517 1522 1527 1531 1534 1537 1539 1542 1544 1546 1549 1551 1554 1556 1557 1559 1560 1562 1564 1566 1567 1569 1571 1572 1573 1573 1574 1575 1575 1575 1574 1574 1574 1574 1575 1575 1575 1574 1574 1574
1501 1506 1512 1518 1523 1527 1531 1535 1538 1540 1543 1545 1548 1551 1553 1555 1557 1558 1560 1562 1564 1567 1568 1570 1572 1574 1575 1575 1576 1576 1577 1578 1578 1578 1579 1579 1579 1579 1580 1579 1578 1578 1578
1503 1507 1512 1517 1523 1528 1531 1535 1538 1541 1543 1546 1549 1552 1554 1557 1558 1560 1562 1564 1566 1568 1570 1572 1574 1576 1577 1578 1579 1580 1581 1580 1579 1581 1581 1582 1583 1583 1583 1582 1582 1583 1582
1504 1508 1512 1518 1524 1528 1532 1536 1539 1542 1544 1547 1550 1552 1554 1557 1559 1561 1563 1565 1568 1570 1572 1574 1576 1578 1580 1581 1582 1582 1581 1583 1583 1584 1584 1585 1586 1586 1586 1586 1586 1586 1586
1501 1508 1513 1519 1524 1528 1532 1536 1539 1543 1545 1548 1551 1553 1555 1558 1560 1563 1565 1567 1569 1572 1574 1576 1578 1581 1582 1584 1584 1585 1583 1584 1585 1587 1588 1588 1589 1589 1589 1590 1590 1590 1589
1503 1508 1512 1518 1523 1528 1532 1536 1540 1543 1546 1549 1551 1554 1556 1559 1561 1564 1567 1569 1571 1573 1575 1578 1581 1583 1585 1586 1588 1588 1586 1587 1587 1589 1590 1591 1591 1592 1592 1593 1593 1593 1592
1503 1508 1512 1517 1522 1527 1532 1536 1541 1544 1547 1550 1553 1554 1557 1560 1563 1566 1568 1571 1573 1576 1578 1580 1583 1587 1589 1590 1591 1589 1589 1590 1590 1590 1591 1592 1593 1594 1595 1595 1595 1595 1596
1503 1507 1511 1516 1521 1526 1532 1537 1541 1545 1548 1551 1554 1557 1559 1562 1566 1569 1571 1574 1576 1578 1581 1584 1586 1589 1591 1592 1593 1593 1593 1591 1592 1593 1594 1595 1595 1596 1597 1598 1598 1598 1598
1500 1505 1510 1515 1520 1524 1530 1536 1541 1545 1548 1552 1555 1558 1561 1565 1568 1571 1574 1576 1579 1581 1583 1586 1588 1591 1593 1594 1596 1596 1593 1594 1594 1595 1596 1597 1597 1598 1599 1600 1600 1601 1601
1498 1503 1509 1513 1519 1523 1527 1533 1539 1544 1547 1552 1556 1560 1562 1565 1569 1572 1575 1578 1580 1582 1585 1588 1590 1592 1594 1596 1597 1597 1597 1597 1598 1598 1600 1600 1601 1600 1601 1602 1602 1603 1602
1497 1501 1508 1512 1518 1522 1527 1532 1537 1542 1547 1552 1557 1561 1562 1566 1570 1573 1576 1580 1582 1585 1587 1589 1592 1594 1596 1598 1599 1598 1598 1599 1599 1600 1601 1603 1604 1603 1602 1602 1603 1604 1604
1494 1500 1505 1511 1516 1521 1526 1531 1536 1541 1546 1552 1556 1559 1562 1565 1570 1574 1577 1580 1583 1586 1589 1592 1594 1595 1597 1599 1599 1599 1600 1601 1601 1602 1604 1605 1605 1605 1605 1605 1604 1604 1605
1493 1498 1503 1509 1515 1520 1525 1530 1535 1540 1545 1551 1556 1558 1563 1566 1570 1574 1578 1581 1584 1587 1590 1593 1595 1596 1598 1599 1600 1601 1602 1603 1603 1605 1606 1606 1607 1607 1606 1606 1606 1606 1605
1489 1495 1501 1506 1512 1519 1524 1529 1534 1539 1543 1548 1553 1558 1563 1567 1570 1574 1578 1581 1584 1588 1591 1593 1596 1597 1599 1600 1601 1603 1604 1605 1606 1607 1607 1607 1608 1609 1608 1608 1609 1608 1608
1486 1493 1499 1505 1511 1518 1524 1528 1533 1537 1542 1547 1552 1556 1561 1566 1569 1573 1577 1581 1584 1588 1591 1594 1596 1598 1599 1601 1603 1604 1605 1606 1608 1609 1610 1610 1610 1610 1610 1610 1610 1610 1609
1482 1489 1495 1501 1508 1514 1522 1527 1532 1537 1541 1546 1550 1555 1559 1564 1569 1572 1576 1581 1584 1587 1590 1593 1596 1598 1600 1602 1604 1606 1608 1609 1610 1612 1612 1612 1611 1612 1612 1612 1612 1612 1611
1481 1486 1493 1499 1505 1511 1519 1525 1531 1536 1541 1545 1549 1554 1557 1561 1566 1570 1575 1579 1583 1586 1590 1593 1595 1598 1601 1603 1606 1608 1610 1611 1612 1613 1613 1614 1614 1614 1614 1613 1613 1613 1613
1478 1485 1489 1496 1502 1507 1513 1521 1527 1531 1537 1543 1548 1552 1556 1560 1564 1568 1572 1577 1581 1585 1589 1592 1595 1598 1601 1604 1605 1608 1610 1612 1613 1615 1616 1616 1616 1616 1616 1615 1615 1615 1615
1473 1480 1485 1491 1496 1504 1510 1518 1525 1529 1535 1541 1546 1551 1555 1559 1563 1567 1570 1575 1580 1584 1588 1592 1595 1598 1601 1603 1606 1608 1610 1614 1614 1615 1616 1617 1617 1618 1617 1617 1617 1616 1616
1470 1475 1480 1487 1493 1500 1507 1514 1522 1529 1535 1540 1544 1549 1553 1558 1562 1566 1570 1574 1579 1583 1587 1591 1594 1597 1599 1603 1605 1608 1610 1612 1614 1616 1616 1618 1618 1618 1618 1618 1618 1618 1617
1463 1469 1478 1483 1490 1496 1502 1508 1515 1521 1526 1534 1539 1545 1551 1556 1561 1565 1569 1573 1577 1582 1586 1589 1593 1596 1599 1601 1604 1606 1608 1610 1613 1615 1616 1617 1617 1618 1618 1618 1618 1618 1618
1458 1465 1472 1479 1486 1492 1498 1506 1511 1517 1525 1531 1537 1543 1549 1554 1559 1563 1567 1571 1576 1580 1585 1588 1592 1595 1598 1601 1603 1606 1608 1610 1612 1613 1615 1616 1617 1617 1618 1618 1618 1618 1617
1456 1457 1468 1474 1481 1488 1494 1502 1505 1512 1518 1525 1532 1539 1545 1549 1555 1560 1565 1569 1573 1578 1582 1587 1590 1594 1597 1599 1602 1604 1607 1609 1611 1612 1614 1615 1616 1616 1617 1617 1617 1617 1617